User: anonymous
Location: Unspecified
(0.0000°N, 0.0000°E)
Time: 22:58:45
(UTC+02:00)
Language:

Palapa 6 Rocket - Orbit

View from above orbital plane
View from above orbital plane
View from above satellite
View from above satellite

Ground track
Ground track

The orbit data is extracted from the following two-line orbital elements,

1 20571U 90034B   14237.32208625  .00002386  00000-0  32160-3 0  5109
2 20571 022.7440 187.4991 0518066 058.3821 067.3844 14.09623488246827
Epoch (UTC): 25 August 2014 07:43:48
Eccentricity: 0.0518066
inclination: 22.7440°
perigee height: 485 km
apogee height: 1235 km
right ascension of ascending node: 187.4991°
argument of perigee: 58.3821°
revolutions per day: 14.09623488
mean anomaly at epoch: 67.3844°
orbit number at epoch: 24682

The dashed part of the orbit path shows where the satellite is in the earth's shadow,  

DLR